Volver al catálogo

CZ-6A DEB

ActivoPO
NORAD 61265·DEBRIS·🇨🇳 China

Lanzado Aug 6, 2024 desde Taiyuan Satellite Launch Center

Loading…

Próximos Pases (próximas 24 horas)

TLE

ActualizadoSource: Space-Track

Época: Sep 14, 2026, 17:37 UTC

1 61265U 24140SA  26257.73433126  .00005804  00000-0  11659-2 0  9993
2 61265  88.9472 254.8881 0057845 326.4627  33.2928 14.60485983108896

Sigue CZ-6A DEB en tiempo real con AllMySat

Download on the App Store